小林彗星

440P/Kobayashi (2022)

English version
Home page
Updated on May 29, 2022

---------------------------------------------------------------------

・ プロフィール

符号 440P/2021 W2
検出日 2021年11月29日、2022年1月11日
検出光度 22.0等、19.9等
検出者 Bok reflector at Kitt Peak, XuYi Station of Purple Mountain Observatory

・ 写真集

・ 軌道要素

Epoch 2022 Jan. 21.0 TT = JDT 2459600.5
T 2022 Mar. 29.95756 TT                                 Rudenko
q   2.0562272            (2000.0)            P               Q
n   0.03919034     Peri.  183.32131     -0.88391746     -0.45441428
a   8.5838746      Node   328.88216     +0.43382852     -0.70863377
e   0.7604547      Incl.   12.33956     +0.17459308     -0.53976462
P  25.1
From 387 observations 1997 Jan. 30-2022 Feb. 2, mean residual 0".5.

・ 光度変化

        m1 =  3.0 + 5 logΔ + 43   log r(t - 30)  [  ,70]  (              〜2022年 6月 7日)
        m1 = 13.5 + 5 logΔ + 10.0 log r          [70,  ]  (2022年 6月 7日〜              )

---------------------------------------------------------------------

軌道要素はM.P.E.C. 2022-C56に掲載されたものです。
光度グラフはComet for Windowsで作成したものです。

---------------------------------------------------------------------

Copyright(C) Seiichi Yoshida (comet@aerith.net). All rights reserved.